GFSSGP_con_lsi_159.txt.gz
Lid_Strength_Index
0 2 2 2 7 7 10 9 6 7 7 5 4 5 6 5 8 11 1 -0 -0 -0 -1 -1 -1 -2 -1 -1 -2 -2 -2 -2 -2 -2 -2 -2 -2 -2 -2 -2 -2 -3 -2 -2 -2 -2 -2 -2 -2
2 3 2 4 8 10 10 7 8 7 5 4 5 5 6 7 4 3 2 -0 -1 -1 -1 -1 -1 -1 -1 -2 -2 -2 -2 -2 -2 -2 -2 -2 -2 -2 -2 -2 -2 -2 -2 -2 -2 -2 -2 -2 -2
2 3 5 6 8 11 10 7 6 6 5 5 6 4 5 6 3 3 0 -0 -1 -1 -1 -1 -1 -1 -2 -2 -2 -2 -2 -2 -2 -2 -2 -2 -2 -2 -2 -2 -2 -3 -2 -2 -2 -2 -2 -2 -2
3 3 4 8 10 9 8 7 5 6 5 4 5 6 4 2 3 1 -0 -1 -0 -1 -1 -1 -1 -1 -2 -2 -2 -2 -2 -2 -2 -2 -2 -2 -2 -2 -2 -2 -2 -2 -2 -2 -2 -2 -2 -2 -2
2 4 8 9 9 8 7 5 5 6 5 5 5 6 5 3 1 0 0 -0 -0 -1 -1 -1 -1 -1 -1 -2 -2 -2 -2 -2 -2 -2 -2 -2 -2 -2 -2 -2 -3 -2 -2 -2 -2 -2 -2 -2 -2
5 4 9 11 9 8 7 5 5 5 5 5 5 5 5 2 1 1 0 -0 -1 -0 -1 -1 0 -1 -1 -1 -2 -2 -2 -2 -2 -2 -2 -2 -2 -2 -2 -2 -2 -2 -2 -2 -2 -2 -2 -2 -2
6 7 9 9 9 9 8 5 6 6 5 5 4 6 4 3 1 0 0 -0 -1 -1 -1 -1 -1 -1 0 -0 -1 -1 -2 -2 -2 -2 -2 -2 -2 -2 -2 -2 -2 -2 -1 -2 -2 -2 -2 -2 -2
4 6 9 9 9 9 7 6 5 6 6 3 3 6 6 3 1 0 0 -0 -0 -1 -1 -1 -1 -1 -1 -1 1 -0 -1 -1 -1 -2 -1 -1 -1 -1 -1 -1 -2 -2 -2 -1 -2 -2 -2 -2 -2
4 9 10 9 9 8 6 7 6 5 5 4 4 4 3 2 1 1 1 1 0 0 -0 -1 -1 -1 -1 -1 -0 1 0 -0 -0 -1 -0 -0 -1 -1 -1 -1 -2 -2 -2 -2 -1 -1 -1 -2 -1
6 9 9 6 6 7 7 6 6 6 6 5 5 3 2 2 2 3 3 2 2 1 0 -1 -1 -1 -1 -1 -1 -1 -1 -1 -1 -1 -2 -1 -1 -1 -1 -0 -1 -1 -2 -2 -1 -1 -2 -1 -1
6 9 6 6 6 5 6 7 6 7 7 6 5 4 3 3 3 3 2 2 2 1 0 -0 -1 -1 -1 -1 -1 -1 -1 -1 -1 -1 -1 -2 -1 -1 -1 -1 -1 -1 0 -1 -1 -0 -1 -1 -1
8 6 6 6 6 6 7 5 7 6 5 5 4 3 3 3 3 3 3 2 1 1 0 -0 -1 -1 -1 -1 -1 -1 -1 -1 -1 -1 -1 -1 -1 -1 -1 -1 -1 -2 -1 -1 -1 -1 -1 -1 -1
7 6 6 5 6 6 6 6 6 6 5 5 5 4 3 3 3 2 2 1 1 1 1 0 -1 -1 -1 -1 -1 -1 -1 -1 -1 -1 -1 -1 -1 -1 -1 -0 -1 -1 -1 -1 -1 -1 -1 -1 -1
6 6 6 5 6 6 7 6 6 5 4 4 6 5 4 4 3 2 2 2 1 1 1 0 -0 -1 -1 -1 -1 -1 -1 -1 -1 -1 -1 -1 -1 -1 -1 0 0 -0 -0 -1 -1 -1 -1 -1 -1
6 8 7 6 6 7 6 8 8 5 4 5 4 4 4 4 3 3 2 2 1 1 0 0 0 -1 -0 -0 -1 -1 -1 -1 -1 -1 -1 -1 -1 -1 -0 -0 0 0 -0 -1 -1 -1 -1 -1 -1
8 7 11 8 6 6 7 11 6 4 5 5 5 4 3 3 3 3 2 1 1 1 1 0 -0 -0 -0 -0 -1 -1 -1 -1 -1 -1 -1 -1 -1 -1 -1 -1 -0 -0 -0 -0 -1 -0 -0 -0 -0
9 11 10 10 6 7 8 9 6 4 5 5 5 4 4 3 3 2 2 2 1 1 1 1 0 0 -0 -0 -1 -1 -1 -1 -1 -1 -1 -1 -1 -1 -1 -1 -1 -1 -1 -1 -0 -0 -0 0 0
11 12 10 10 8 7 8 9 7 6 5 5 5 4 4 4 4 3 1 1 1 1 1 0 0 0 -0 -0 -0 -0 -0 -1 -1 -1 -1 -1 -1 -1 -1 -1 -1 -1 -0 -0 -0 0 -0 0 0
8 10 10 8 7 8 9 9 8 7 6 6 5 5 4 4 2 2 2 2 1 1 1 1 1 0 0 1 1 1 1 0 0 -1 -1 -1 -1 -1 -1 -1 -0 -1 0 0 -0 0 1 1 0
9 11 10 8 7 9 9 9 7 7 7 6 6 6 5 4 3 2 2 2 2 1 1 1 1 1 1 1 1 1 1 0 -0 -0 -1 -1 -1 -1 -1 -0 -0 -0 0 0 0 0 1 1 0
10 11 11 11 9 8 10 11 9 7 6 5 5 5 5 5 4 4 3 2 2 2 1 1 1 1 0 0 0 1 1 1 1 1 0 -0 -1 -1 -1 -1 -0 -0 -0 1 0 0 1 2 1
13 9 10 11 12 15 9 15 9 7 7 7 6 5 5 5 4 3 3 2 2 1 1 1 1 1 0 0 1 1 2 3 2 2 0 0 -1 -0 -1 -1 -0 -0 -0 0 0 0 0 1 2
11 8 10 10 12 13 13 15 12 8 9 8 7 5 4 4 4 4 4 2 2 1 1 1 1 1 0 0 1 1 2 1 1 2 1 0 -0 -0 -0 -0 -0 -0 -0 0 0 0 1 1 1
8 10 10 11 12 18 13 13 14 11 9 8 6 5 5 4 4 3 3 3 3 1 1 1 1 2 1 1 1 1 2 2 2 1 2 1 1 0 -0 -0 -0 -0 0 0 0 0 0 1 1
9 12 18 19 19 18 11 12 13 9 8 8 7 6 5 4 4 3 4 4 4 3 2 2 2 2 1 1 1 1 1 1 2 1 1 2 1 1 1 0 0 0 0 0 0 0 0 1 1
11 12 16 20 18 15 12 15 12 8 6 6 5 5 4 4 4 4 5 4 4 5 4 4 4 4 3 2 1 1 1 1 1 1 1 1 1 1 1 1 1 0 0 1 1 1 1 0 1
12 14 9 14 15 16 13 11 9 8 8 6 6 5 5 4 5 5 5 5 5 4 4 4 5 5 5 4 3 1 1 1 1 1 1 1 1 1 0 1 1 1 1 1 1 2 2 2 1
10 8 16 16 20 20 14 13 13 10 9 7 6 6 5 5 5 4 4 4 4 4 4 4 4 5 5 4 4 3 2 1 1 1 1 1 1 1 1 1 1 2 1 1 2 2 2 2 2
13 13 12 12 13 17 17 13 8 8 8 8 7 6 5 5 4 4 5 5 4 4 4 4 4 4 4 4 4 3 3 2 1 1 1 1 1 1 1 1 1 2 2 2 2 2 2 3 3
9 11 11 15 17 14 15 14 7 7 7 7 6 6 5 5 4 5 5 5 4 5 4 4 4 4 4 4 4 4 3 3 2 1 1 1 1 1 1 1 1 2 2 2 3 3 3 3 3

GFSSGP_con_lsi_162.txt.gz
Lid_Strength_Index
0 1 3 4 9 9 12 10 7 8 8 6 5 7 7 7 9 12 2 1 0 -0 -1 -1 -1 -2 -2 -2 -2 -2 -2 -2 -2 -2 -2 -2 -2 -2 -2 -2 -3 -3 -2 -2 -2 -2 -2 -2 -2
1 2 3 5 10 13 12 8 9 8 6 5 6 6 7 9 4 4 3 0 0 -0 -1 -1 -1 -1 -2 -2 -2 -2 -2 -2 -2 -2 -2 -2 -2 -2 -2 -2 -3 -3 -2 -2 -2 -2 -2 -2 -2
0 3 6 8 10 12 12 8 8 7 6 6 7 6 6 7 4 3 1 0 0 0 -1 -1 -1 -1 -2 -2 -2 -2 -2 -2 -2 -2 -2 -2 -2 -2 -2 -2 -3 -3 -2 -2 -2 -2 -2 -2 -2
3 4 6 10 11 10 9 8 6 7 6 6 6 8 5 3 3 2 0 0 1 0 -1 -1 -1 -1 -2 -2 -2 -2 -2 -2 -2 -2 -2 -2 -2 -2 -3 -2 -3 -2 -2 -2 -2 -2 -2 -2 -2
2 5 10 11 10 10 8 7 6 7 7 6 7 8 7 3 1 1 1 1 1 0 -0 -1 -1 -1 -2 -2 -2 -2 -2 -2 -2 -2 -1 -2 -2 -3 -3 -2 -2 -2 -2 -2 -2 -2 -2 -2 -2
6 6 11 12 10 10 8 7 6 7 6 6 7 7 7 2 2 1 1 1 0 1 -0 -1 0 -0 -1 -1 -2 -2 -2 -2 -2 -2 -2 -2 -2 -2 -2 -3 -2 -2 -2 -2 -2 -2 -2 -2 -2
7 9 11 11 10 9 9 7 8 8 8 7 6 8 6 4 2 1 1 1 1 0 0 -0 -0 -0 0 -0 -1 -2 -2 -2 -2 -2 -2 -2 -2 -2 -2 -2 -2 -1 -2 -2 -2 -2 -2 -2 -2
5 8 11 11 11 10 8 7 7 8 7 5 5 8 8 4 1 1 1 1 1 1 1 0 -0 -0 -0 -0 1 -0 -1 -1 -2 -2 -1 -1 -1 -1 -1 -1 -2 -2 -1 -2 -2 -2 -2 -2 -1
3 10 12 10 10 9 7 8 7 7 7 7 5 5 4 2 1 2 2 2 2 1 1 1 0 -0 -0 -0 1 1 0 -0 -0 -1 -0 0 -0 -0 -0 -0 -1 -2 -2 -1 -1 -1 -2 -2 -1
7 11 10 7 8 8 7 8 8 8 8 7 6 4 3 2 3 3 3 3 3 2 2 1 1 1 -0 -0 -0 -0 -0 -0 -0 -0 -0 -0 -0 0 -0 0 -0 -1 -1 -2 -1 -1 -2 -1 1
7 10 7 7 7 7 7 8 7 8 9 7 7 5 4 4 3 4 3 3 3 2 1 1 1 1 0 -0 -0 -0 -1 -0 -1 -0 -0 -0 0 1 0 1 1 1 1 0 -0 0 0 1 1
9 7 6 6 7 7 7 7 8 8 8 6 6 4 4 4 4 4 3 3 3 2 2 1 1 1 1 0 -0 0 -0 -0 -0 -0 0 0 1 1 1 1 2 2 2 1 1 1 1 1 0
8 7 6 6 6 6 6 7 8 7 6 7 6 4 4 4 4 3 2 2 3 2 2 2 1 1 1 0 0 1 0 -0 -0 0 -0 0 1 1 1 1 1 1 1 1 1 1 1 1 1
7 7 6 6 6 6 7 7 6 7 5 6 6 7 5 4 4 3 3 3 3 3 2 1 1 1 1 1 1 0 1 0 0 0 0 0 1 1 1 2 2 2 2 2 1 2 1 1 1
6 9 7 8 7 8 7 9 9 6 5 6 6 7 6 6 5 4 3 3 2 3 2 1 1 1 1 1 1 1 1 1 0 1 1 0 0 1 1 2 2 2 2 2 2 2 2 2 1
9 9 13 9 7 7 8 12 7 5 5 6 6 6 5 5 4 5 4 2 2 2 2 3 2 1 1 1 1 1 1 1 1 1 1 1 0 0 1 2 2 2 2 2 2 2 2 2 2
11 14 12 11 8 8 9 12 8 6 6 6 6 6 6 5 4 3 3 3 2 2 2 2 3 3 2 2 1 1 1 1 1 1 1 1 0 -0 1 1 1 1 2 2 2 2 3 3 2
13 13 11 12 9 8 10 10 8 7 8 7 7 7 6 6 5 4 3 3 2 2 2 1 2 2 2 3 2 1 1 1 1 1 1 1 0 0 0 1 1 1 1 2 2 2 2 2 2
10 11 12 10 8 9 10 10 8 7 8 9 8 7 6 6 4 4 4 4 3 2 2 2 2 2 2 2 3 3 2 1 1 0 1 1 1 0 0 0 1 1 1 1 1 1 2 2 2
10 12 12 10 8 10 10 11 8 7 8 7 7 7 7 7 6 4 4 3 3 3 2 2 2 1 1 2 2 3 3 3 2 2 2 2 1 2 1 0 1 1 1 1 1 2 2 2 2
11 12 12 12 10 10 11 12 10 8 7 6 6 6 6 6 6 6 6 5 4 3 3 2 2 2 1 1 1 2 2 3 3 3 3 2 2 3 3 2 0 1 1 1 1 1 2 2 2
14 10 10 12 13 17 11 18 12 10 9 8 7 7 6 5 5 5 5 5 5 4 3 2 2 2 1 1 1 2 3 3 3 3 2 2 2 2 3 3 1 1 0 1 1 1 1 2 3
12 9 10 11 14 14 14 16 15 11 11 9 8 7 6 5 5 5 5 5 5 4 4 3 2 2 2 1 1 1 2 2 2 2 3 3 2 2 2 3 3 2 1 1 1 1 1 1 2
8 10 11 11 13 18 14 15 16 13 11 10 9 7 7 6 7 6 5 5 4 4 4 3 3 3 2 2 2 1 2 2 2 2 2 3 2 2 2 2 3 3 3 3 1 1 1 1 1
10 13 19 20 20 20 13 15 14 11 10 10 9 8 8 6 6 6 8 6 5 5 5 5 6 5 4 4 3 1 2 2 2 2 2 2 2 2 3 2 3 3 3 3 3 3 3 2 2
12 12 18 22 21 19 13 18 15 10 8 8 8 7 6 6 7 7 7 7 7 7 6 6 6 6 6 6 5 4 2 1 1 1 1 1 1 1 1 2 2 3 3 3 3 3 3 3 3
13 15 10 16 18 19 16 15 12 10 10 9 8 8 8 7 7 7 7 7 7 7 6 6 6 6 6 6 6 6 5 3 1 1 1 1 1 1 1 1 1 2 2 3 3 3 3 3 3
10 9 16 15 22 22 18 17 16 13 11 9 9 9 8 7 6 6 6 6 6 6 6 6 6 6 6 6 6 6 5 5 3 2 1 1 1 1 1 1 1 1 2 2 2 2 2 3 2
12 13 13 13 15 19 20 17 12 11 11 11 10 8 7 6 6 7 8 8 7 7 7 7 6 6 6 5 6 6 6 5 4 4 3 1 1 1 1 1 1 1 1 1 2 2 2 2 3
10 12 12 16 18 16 16 16 9 10 9 10 8 7 7 7 7 8 8 8 8 7 6 6 6 6 6 5 5 5 6 5 5 4 3 2 1 1 1 1 1 1 1 1 2 2 2 3 3

GFSSGP_con_lsi_165.txt.gz
Lid_Strength_Index
-0 1 3 6 10 12 13 12 9 9 9 7 6 7 8 8 10 12 2 1 0 -0 -1 -1 -1 -2 -2 -2 -2 -2 -2 -2 -2 -2 -2 -2 -2 -2 -2 -2 -2 -2 -2 -2 -2 -2 -2 -2 -2
1 1 6 8 12 15 13 10 10 8 7 6 6 6 8 9 5 4 3 0 -0 -0 -1 -1 -1 -2 -2 -2 -2 -2 -2 -2 -2 -2 -2 -2 -2 -2 -2 -2 -2 -2 -2 -2 -2 -2 -2 -2 -2
1 3 9 10 13 14 13 10 9 8 7 7 8 5 7 8 4 3 2 0 -0 -0 -1 -1 -1 -2 -2 -2 -2 -2 -2 -2 -2 -2 -2 -2 -2 -2 -2 -2 -3 -2 -2 -2 -2 -2 -2 -2 -2
3 6 8 12 13 12 11 9 7 8 7 6 6 9 5 3 3 2 1 1 0 -0 -1 -0 -1 -2 -2 -2 -2 -2 -2 -2 -2 -2 -2 -2 -3 -3 -2 -3 -3 -2 -2 -2 -2 -2 -2 -2 -2
4 8 11 12 13 12 11 8 7 8 7 8 7 9 7 3 2 1 2 1 0 0 -0 -1 -1 -1 -2 -2 -2 -2 -2 -2 -2 -2 -2 -2 -3 -3 -3 -3 -3 -3 -2 -2 -2 -2 -2 -2 -1
7 8 12 14 14 12 10 8 8 9 7 8 7 8 7 2 2 2 2 2 -0 0 -0 -1 0 -0 -1 -2 -2 -2 -2 -2 -2 -2 -2 -2 -2 -2 -2 -2 -2 -2 -2 -2 -2 -2 -2 -1 -1
8 9 13 12 12 12 10 7 9 9 9 8 7 9 6 4 2 2 2 2 1 -0 -0 -0 -0 -0 0 -1 -1 -2 -2 -2 -2 -2 -2 -2 -2 -2 -2 -2 -2 -2 -2 -2 -2 -2 -2 -2 -1
7 9 12 11 11 11 10 8 8 9 8 6 5 9 9 4 2 2 2 2 3 0 0 0 0 -0 -0 -0 0 -0 -1 -2 -2 -2 -1 -1 -1 -1 -1 -1 -2 -1 -2 -2 -2 -2 -2 -1 -1
5 11 13 11 10 11 9 9 8 8 7 7 5 6 4 2 2 2 4 3 3 2 1 0 -0 -0 0 -0 1 1 0 -0 -1 -0 -0 0 0 -0 -0 -0 -1 -2 -1 -2 -2 -2 -2 -1 -1
8 11 11 9 8 10 9 9 9 9 9 8 6 4 3 3 3 4 4 4 4 3 3 2 0 -0 -0 -1 0 0 -0 0 -0 -0 0 0 0 0 -0 1 -0 -1 -1 -1 -2 -2 -2 -0 2
8 11 8 8 7 7 8 9 8 9 10 8 7 6 4 4 3 4 4 4 4 3 2 2 1 1 0 -0 -0 0 0 0 -0 0 0 1 1 2 1 1 1 1 1 1 -0 0 0 1 1
10 8 7 6 8 8 9 8 9 9 9 7 6 4 4 4 4 4 3 3 3 3 2 2 2 1 1 -0 -0 -0 0 0 0 0 0 0 2 2 2 2 2 2 2 2 2 3 3 2 2
9 8 7 6 6 8 8 9 9 8 7 7 4 4 4 4 4 3 3 3 3 3 2 2 2 2 1 1 1 0 0 -0 0 0 0 0 1 2 2 2 2 3 3 3 3 2 2 2 2
9 8 7 7 7 7 8 8 7 7 6 7 6 5 4 4 4 4 3 3 5 3 2 2 2 2 2 1 1 1 1 1 1 1 0 1 1 2 2 2 2 2 2 3 2 2 2 2 2
7 10 9 8 7 8 7 10 9 6 5 6 7 8 6 4 4 3 3 3 3 4 4 3 3 3 2 2 1 1 2 1 1 1 1 1 2 2 1 2 2 2 2 2 2 2 3 3 3
10 10 13 9 9 7 8 13 8 6 6 6 6 8 8 7 5 3 3 2 3 4 4 3 3 3 3 3 2 1 1 2 1 1 1 1 1 2 2 2 2 3 3 3 3 2 3 3 3
12 15 13 12 9 9 9 12 8 7 8 8 7 6 7 6 6 5 4 2 2 3 3 4 3 3 4 4 3 2 3 2 1 1 1 1 1 1 3 2 2 2 3 3 2 3 3 4 3
15 14 12 13 11 11 10 11 8 8 9 9 9 7 7 7 6 5 4 4 2 2 2 3 3 3 3 3 4 4 3 3 3 2 1 2 1 1 2 3 3 2 3 3 3 3 3 3 3
11 12 13 11 9 9 10 10 9 9 9 9 10 9 8 7 6 6 4 4 4 3 2 2 3 3 3 3 4 4 4 3 3 3 3 3 3 2 3 3 3 3 4 3 3 3 3 3 3
11 12 13 10 9 10 11 11 9 7 7 8 8 8 8 7 7 6 6 5 5 3 3 2 2 3 3 2 2 3 3 3 2 3 2 2 3 3 3 4 4 3 4 4 3 2 3 3 3
12 13 13 12 10 10 12 13 11 9 7 7 7 7 7 7 6 6 7 7 6 5 4 3 2 2 2 2 2 3 3 4 4 3 3 2 3 3 3 3 3 3 3 4 4 2 2 3 3
14 10 11 12 13 17 12 18 14 11 10 9 8 7 7 7 6 5 5 6 6 5 5 2 3 2 2 2 2 3 3 3 3 3 2 2 2 3 3 3 3 3 3 3 4 4 3 2 3
12 9 11 12 14 16 16 17 16 12 13 11 9 9 8 6 6 6 6 5 5 4 4 3 3 3 2 2 2 2 3 2 2 2 3 3 2 2 2 3 3 3 3 3 3 4 4 3 4
8 11 11 11 13 18 15 15 18 14 12 11 10 8 8 7 7 7 7 6 6 5 6 6 5 4 4 3 2 2 2 2 2 2 3 3 2 2 2 2 3 3 3 3 3 4 4 4 4
10 13 19 20 20 19 15 16 15 13 12 11 10 10 9 8 8 9 8 7 6 7 7 7 7 7 6 6 5 4 1 2 2 2 2 2 3 3 3 2 2 3 3 3 3 3 4 4 4
12 13 18 22 21 20 15 18 16 11 10 10 10 9 8 9 9 8 8 9 8 8 7 7 7 7 7 7 7 7 6 4 1 1 1 1 1 2 2 2 2 2 2 2 2 3 3 3 4
13 15 11 16 22 20 18 16 13 11 11 11 9 9 9 9 9 8 8 8 8 8 7 7 7 7 7 7 7 7 7 7 6 4 1 1 1 1 1 2 2 1 1 1 2 2 3 3 3
11 9 16 15 21 24 19 19 17 14 12 10 11 10 9 8 8 8 8 8 8 8 8 7 7 7 6 6 6 6 6 6 6 6 5 5 2 0 1 1 2 2 2 1 1 2 2 3 3
12 14 13 13 15 19 21 19 13 12 12 11 11 9 8 8 7 9 10 9 9 9 8 7 7 7 6 6 6 6 6 6 6 6 5 5 4 3 1 1 1 1 1 2 2 2 2 2 2
10 12 13 16 17 15 16 17 12 12 11 10 10 9 8 7 9 10 9 9 9 8 8 7 7 7 6 6 6 6 6 6 6 6 6 5 4 3 3 1 1 1 1 1 1 2 2 2 2

GFSSGP_con_lsi_168.txt.gz
Lid_Strength_Index
-0 1 3 6 10 11 14 12 10 10 10 8 6 7 9 8 10 12 3 1 -0 -0 -1 -1 -1 -2 -1 -2 -2 -2 -2 -2 -2 -2 -2 -2 -2 -2 -2 -2 -3 -3 -2 -2 -2 -2 -2 -2 -2
1 1 6 9 13 14 14 11 11 9 7 6 6 7 8 10 5 4 3 0 -0 -0 -1 -1 -1 -2 -1 -2 -2 -2 -2 -2 -2 -2 -2 -2 -2 -2 -2 -2 -2 -2 -2 -2 -2 -2 -2 -2 -2
2 4 9 11 14 15 13 11 9 8 7 7 8 6 7 8 5 3 2 0 -0 -0 -1 -1 -1 -2 -2 -2 -2 -2 -2 -2 -2 -2 -2 -2 -2 -2 -2 -2 -2 -2 -2 -2 -2 -2 -2 -2 -2
4 6 8 13 14 13 11 9 8 8 8 7 7 9 6 3 3 2 1 0 0 -0 -0 -0 -1 -2 -2 -2 -2 -2 -2 -2 -2 -2 -2 -2 -2 -2 -2 -2 -2 -2 -2 -2 -2 -2 -2 -1 -2
5 8 11 14 14 13 11 8 7 8 8 8 7 10 8 3 2 2 1 0 0 0 -0 -0 -1 -1 -2 -2 -2 -2 -2 -2 -2 -2 -2 -2 -3 -2 -2 -2 -2 -2 -2 -2 -2 -2 -1 -1 -1
7 8 13 14 14 12 10 9 8 9 8 8 8 8 8 3 3 3 2 1 0 0 -0 -0 1 -0 -1 -2 -2 -2 -2 -2 -2 -2 -2 -2 -3 -2 -2 -3 -2 -2 -2 -2 -2 -1 -1 -1 -1
9 10 13 13 13 12 10 9 10 10 9 9 6 9 8 5 2 2 3 1 1 -0 -0 0 -0 0 0 -1 -1 -1 -2 -2 -2 -2 -2 -2 -2 -2 -2 -2 -2 -2 -2 -2 -2 -1 -1 -1 -1
8 10 12 12 12 12 10 9 9 9 9 6 5 9 9 4 2 2 2 2 2 1 0 0 0 0 0 0 1 -0 -1 -1 -1 -2 -1 -1 -1 -1 -2 -1 -2 -2 -2 -1 -1 -1 -1 -1 -1
6 11 13 12 11 11 10 10 9 8 8 6 5 6 4 3 2 3 3 5 3 1 1 0 0 0 0 0 1 1 0 -0 -1 -0 0 1 1 0 0 -0 -1 -2 -2 -2 -1 -1 -2 -1 -1
8 11 11 10 10 10 9 9 10 10 9 8 7 4 3 3 3 4 4 5 4 3 2 0 0 0 0 -1 0 0 -0 0 0 0 1 0 1 1 0 1 -0 -1 -1 -1 -1 -2 -2 -0 2
8 11 8 9 9 8 9 10 9 10 11 8 7 6 4 4 4 4 4 4 4 4 3 2 1 0 0 -0 1 1 1 1 1 1 1 1 1 1 1 2 1 1 1 1 0 0 1 2 2
10 8 8 7 8 8 9 8 10 10 10 8 7 4 4 4 4 4 4 4 5 4 3 3 1 1 0 0 -0 -0 1 1 2 1 1 2 2 2 2 2 2 2 2 3 3 3 2 2 2
10 8 7 7 7 8 8 9 9 9 8 6 4 4 5 4 4 4 3 3 4 3 2 3 2 2 1 0 0 0 0 1 1 1 1 1 2 3 2 2 3 3 3 3 3 3 3 3 3
9 9 8 8 7 7 8 9 8 8 8 7 5 5 5 4 4 4 4 3 4 4 3 2 3 2 1 1 1 0 0 0 1 1 1 1 1 2 2 3 3 3 3 3 3 3 3 2 2
8 10 9 9 8 8 7 10 9 6 7 7 6 5 5 4 3 4 3 3 3 3 4 3 3 3 2 1 1 1 0 0 1 1 1 1 1 2 2 2 3 3 3 3 3 3 3 3 2
10 11 14 10 9 8 8 12 9 6 7 6 7 8 7 5 4 3 2 2 2 3 4 3 2 3 3 2 1 1 1 1 1 1 1 1 1 2 3 3 3 4 3 3 3 3 3 3 4
12 16 14 12 10 10 9 12 8 8 8 8 8 8 7 7 7 4 3 3 2 3 4 3 3 3 3 3 2 1 1 2 1 1 2 2 2 2 2 3 3 4 5 5 4 4 4 4 4
16 14 14 14 12 12 12 11 10 8 9 9 9 9 9 7 6 6 6 3 2 3 4 4 3 3 3 3 3 2 2 2 2 2 2 2 2 2 2 3 3 4 5 5 6 5 5 4 3
11 13 13 13 10 12 13 13 10 9 10 10 10 10 10 9 6 6 6 5 4 3 3 4 4 3 3 4 4 4 3 2 3 3 2 2 2 3 3 3 4 5 5 5 6 5 6 5 5
11 13 14 11 10 11 11 12 10 9 9 9 9 9 9 9 7 6 7 7 5 4 2 3 3 3 3 3 3 3 3 3 3 2 3 3 2 3 3 3 3 4 5 6 6 6 6 5 5
12 13 13 13 11 11 12 13 12 9 9 8 8 7 7 8 7 7 7 7 7 6 4 3 2 3 3 3 3 4 4 4 4 4 3 3 3 3 3 2 3 4 4 5 5 5 6 6 6
15 10 11 12 14 17 13 18 14 12 11 10 9 8 7 6 6 6 7 7 7 6 6 3 2 2 3 3 3 3 3 4 3 3 3 2 3 3 3 3 3 3 4 4 4 4 5 6 6
13 9 11 12 14 16 16 17 16 13 13 11 9 9 8 7 6 6 7 6 5 5 5 4 3 2 2 3 3 3 3 3 3 3 4 3 2 2 2 2 3 3 3 3 3 4 4 4 5
9 11 12 12 14 18 15 16 18 15 12 11 11 10 9 9 8 7 6 6 6 8 8 7 6 6 4 3 3 3 3 3 3 3 4 3 3 2 2 2 3 3 3 3 3 3 4 4 4
10 13 19 19 19 20 16 16 15 14 12 12 11 10 9 9 8 8 8 7 8 9 8 8 8 8 7 7 7 5 4 3 2 2 2 3 3 3 3 2 2 2 2 3 3 3 3 3 4
12 13 18 22 21 20 16 18 16 12 11 11 10 11 9 10 10 9 9 9 9 9 9 9 8 8 8 8 8 8 8 7 6 4 1 1 1 1 2 2 2 2 2 2 2 3 2 2 3
13 15 11 16 21 20 19 17 14 13 13 11 11 10 10 10 10 10 9 9 9 9 9 9 9 8 8 8 8 8 8 8 8 7 6 4 3 2 1 0 2 2 2 2 2 2 2 2 1
11 10 16 15 22 23 20 19 18 16 13 12 12 11 10 10 10 10 9 9 9 9 9 8 8 8 8 7 7 7 7 7 7 7 7 6 6 5 4 3 1 1 1 2 2 1 2 2 2
12 14 13 13 16 19 22 19 15 13 12 11 12 11 10 10 10 10 11 10 9 10 9 9 8 8 8 7 7 8 8 7 7 7 7 6 6 5 5 4 3 2 1 1 2 2 1 1 2
10 12 12 17 18 16 17 17 13 13 12 12 11 10 10 9 9 11 11 10 10 10 9 9 8 8 7 7 8 8 8 7 7 7 7 6 6 6 6 5 5 4 3 1 1 1 1 2 2

GFSSGP_con_lsi_171.txt.gz
Lid_Strength_Index
-0 1 4 6 10 12 14 13 11 10 10 8 6 8 8 8 10 12 3 1 -0 -0 -0 -1 -1 -2 -1 -1 -2 -2 -2 -2 -2 -2 -2 -2 -2 -2 -2 -2 -2 -2 -2 -2 -2 -2 -2 -2 -2
2 2 6 9 12 15 14 12 11 10 8 6 6 7 8 11 6 5 3 0 -0 -0 -0 -0 -1 -2 -1 -2 -2 -2 -2 -2 -2 -2 -2 -2 -2 -2 -2 -2 -2 -2 -2 -2 -2 -2 -2 -2 -2
2 5 8 12 14 14 14 11 10 8 7 7 8 6 8 9 5 4 2 0 -0 -0 -0 -0 -1 -2 -1 -2 -2 -2 -2 -2 -2 -2 -1 -2 -2 -2 -2 -2 -2 -2 -2 -2 -2 -2 -2 -2 -2
4 6 9 13 14 13 10 9 9 8 9 6 7 10 6 3 4 3 1 0 0 0 -0 -0 -1 -2 -2 -2 -2 -2 -2 -2 -2 -2 -2 -2 -2 -2 -2 -2 -2 -2 -2 -2 -2 -2 -2 -2 -2
5 8 12 14 14 13 11 8 8 9 9 9 7 10 9 4 2 1 1 0 1 1 0 -0 -1 -1 -2 -2 -2 -2 -2 -2 -2 -3 -3 -2 -2 -2 -2 -2 -2 -2 -2 -2 -2 -1 -1 -1 -2
8 8 13 15 14 12 10 9 8 9 9 8 8 9 8 3 3 2 1 1 0 0 0 -0 1 -0 -1 -1 -2 -2 -2 -2 -2 -3 -3 -3 -2 -2 -2 -2 -2 -1 -1 -1 -1 -1 -1 -1 -1
9 10 13 13 14 13 10 9 10 9 9 9 6 9 8 6 3 3 2 1 0 0 0 0 0 0 0 -1 -1 -1 -2 -2 -2 -2 -2 -2 -2 -2 -2 -2 -2 -2 -1 -1 -1 -1 -1 -1 -1
9 10 13 13 13 13 11 10 10 10 10 7 5 9 10 5 3 3 2 2 2 1 0 0 1 0 0 0 1 -0 -1 -1 -2 -1 -1 -0 -1 -1 -1 -1 -2 -2 -2 -1 -1 -1 -1 -1 -1
8 12 13 12 12 12 10 10 9 8 8 7 6 6 5 3 2 4 5 4 3 1 1 1 0 0 0 0 1 1 0 -0 -0 -0 0 1 1 1 1 0 -1 -2 -2 -2 -1 -1 -1 -1 -0
10 13 12 10 10 11 10 10 10 10 8 8 8 6 4 3 3 4 5 4 4 2 2 1 1 0 1 -0 1 1 0 1 1 1 1 1 1 1 1 2 1 -1 -1 -2 -2 -1 -1 0 3
9 12 10 9 9 9 10 10 9 10 11 8 7 6 5 5 4 4 4 4 3 3 2 1 1 1 -0 -0 1 1 1 1 1 1 1 1 1 2 2 2 2 2 2 1 0 1 1 3 3
11 9 9 8 8 8 10 9 10 10 10 9 7 4 4 5 4 4 4 5 5 4 3 2 1 1 0 -0 1 0 1 1 2 1 1 2 2 3 3 3 2 2 2 3 3 2 2 2 3
9 10 9 8 8 8 8 9 9 9 8 6 4 4 5 4 4 4 3 4 4 4 4 3 2 1 1 0 1 0 0 1 1 1 1 2 2 3 3 3 3 3 3 3 3 3 3 3 3
10 9 9 8 8 8 9 9 9 8 8 7 5 5 5 4 4 4 4 4 4 4 4 3 2 1 1 1 0 0 1 1 1 1 1 2 2 2 3 3 3 3 3 3 3 4 4 4 3
8 11 9 9 9 9 7 10 9 8 8 8 6 6 5 4 4 4 3 3 3 3 4 3 3 2 2 1 0 0 0 1 1 1 2 2 2 2 2 3 3 3 4 4 5 5 4 4 3
10 11 14 11 8 8 8 13 9 7 8 7 7 8 5 5 4 3 3 3 3 3 4 4 2 3 2 1 1 1 1 1 1 1 2 2 2 3 3 2 3 2 3 4 5 5 5 5 4
13 17 15 13 10 10 9 12 9 8 7 8 8 8 8 7 7 4 3 3 2 2 3 3 3 3 3 2 1 1 2 1 1 1 2 3 2 3 3 4 3 4 4 4 4 4 5 6 6
16 16 15 14 13 12 12 11 9 9 10 9 9 10 10 9 8 6 5 2 2 2 3 4 3 2 2 3 3 2 2 2 1 1 1 2 2 2 3 3 4 5 6 6 7 6 7 6 6
12 14 16 15 12 14 14 14 11 10 10 11 11 11 10 10 8 7 6 6 5 3 3 4 4 3 3 4 4 4 3 2 2 2 1 2 2 2 3 3 4 5 5 5 6 6 7 6 8
12 13 15 13 12 13 13 14 13 11 11 10 9 9 10 10 9 8 7 7 6 5 3 3 4 4 4 3 3 4 4 3 3 2 2 2 2 2 2 3 3 4 4 5 5 5 7 7 7
12 13 14 14 11 12 13 14 13 11 11 10 10 9 9 9 8 9 8 8 8 7 5 3 3 3 3 3 4 4 4 5 4 4 3 2 2 2 3 3 3 3 4 4 5 5 6 6 7
15 10 11 13 14 17 13 19 16 13 12 11 10 9 8 7 7 6 7 8 8 7 7 4 2 3 3 3 4 4 4 5 4 4 3 3 3 2 2 2 3 3 3 4 4 4 5 6 6
12 10 11 12 15 16 16 17 17 14 14 13 11 10 9 8 7 7 7 7 7 5 5 5 4 2 2 3 3 4 4 4 4 4 4 4 3 3 3 3 3 3 3 3 3 3 4 4 5
9 11 12 12 14 18 15 16 19 15 13 12 11 10 10 9 9 8 7 6 7 8 8 7 6 5 2 3 3 4 4 4 4 4 4 4 4 3 3 2 3 2 2 3 3 3 3 3 3
10 13 19 19 20 19 17 16 16 14 13 12 11 11 11 10 9 8 8 8 9 9 8 8 8 8 7 5 4 4 3 4 4 3 3 3 3 3 3 3 2 2 2 2 2 2 2 2 3
12 13 18 22 21 20 17 18 16 13 11 11 11 11 10 10 10 9 8 9 9 9 9 9 9 9 9 9 9 8 8 8 7 7 6 5 3 2 1 1 1 1 1 1 0 2 2 2 2
13 15 12 18 24 21 19 18 15 13 13 13 12 12 11 10 10 10 10 10 10 10 10 10 9 9 9 9 9 9 9 9 8 8 8 7 7 6 6 5 4 2 1 0 1 1 1 1 1
11 9 16 17 23 25 20 20 19 16 14 13 13 11 10 11 10 10 10 10 10 10 10 9 9 9 9 9 9 9 9 9 8 8 8 8 8 7 7 6 5 4 3 1 0 1 1 1 1
12 13 13 13 17 20 22 20 16 14 13 12 12 11 10 10 10 10 10 10 10 10 10 10 9 9 9 9 9 9 10 9 9 9 9 9 8 8 8 7 6 6 5 4 3 2 1 1 1
10 12 12 16 18 16 18 18 15 14 13 13 12 11 11 10 10 11 11 11 11 10 10 10 9 9 9 10 10 10 10 10 10 10 9 9 9 8 8 8 7 6 6 5 5 4 3 2 2

GFSSGP_con_lsi_174.txt.gz
Lid_Strength_Index
0 2 6 7 10 12 15 14 11 11 10 8 7 8 9 9 10 12 4 1 0 0 -0 -1 -1 -2 -1 -1 -2 -2 -2 -2 -2 -2 -2 -2 -2 -2 -2 -2 -2 -2 -2 -2 -2 -2 -2 -2 -2
2 3 6 10 12 15 14 13 11 10 8 6 7 8 9 11 6 5 3 1 -0 -0 -0 -0 -1 -2 -1 -2 -2 -2 -2 -2 -2 -2 -2 -2 -2 -2 -2 -2 -2 -2 -2 -2 -2 -2 -2 -2 -2
3 6 9 12 14 15 14 11 10 9 7 7 9 7 9 9 6 4 3 0 -0 0 -0 -0 -1 -2 -1 -2 -2 -2 -2 -2 -2 -1 -2 -2 -2 -2 -2 -2 -2 -2 -2 -2 -2 -2 -2 -2 -2
5 7 10 13 15 13 11 10 9 9 8 7 7 10 7 4 4 3 1 0 0 -0 0 -0 -1 -2 -1 -2 -2 -2 -2 -2 -2 -1 -2 -2 -2 -2 -2 -2 -2 -2 -2 -2 -2 -2 -2 -2 -1
6 8 13 14 15 12 10 8 8 9 9 8 8 11 10 5 2 1 1 0 0 0 0 -0 -1 -1 -2 -1 -2 -2 -2 -1 -2 -3 -2 -2 -2 -2 -2 -2 -1 -1 -1 -1 -1 -1 -2 -2 -1
8 9 13 15 14 12 10 8 9 9 9 8 9 9 9 4 3 2 1 1 0 0 0 0 1 -0 -1 -2 -2 -2 -2 -2 -2 -3 -2 -2 -2 -2 -2 -2 -1 -1 -1 -1 -1 -1 -1 -1 -1
9 11 14 14 14 12 11 9 10 9 9 9 6 10 8 6 3 2 2 1 1 0 0 0 0 0 0 -1 -1 -1 -2 -2 -2 -2 -2 -2 -2 -2 -2 -2 -2 -1 -1 -1 -1 -1 -1 -1 -1
9 10 13 13 14 13 11 10 10 10 10 6 5 9 9 5 3 3 2 2 2 1 1 -0 0 0 0 0 1 -0 -1 -1 -1 -1 -1 -0 -1 -1 -1 -1 -2 -2 -1 -1 -1 -1 -1 -1 -0
8 12 13 12 12 12 10 11 10 8 8 7 7 7 6 4 4 4 3 2 1 1 1 0 0 1 1 0 1 1 0 -0 -0 -0 0 1 2 1 1 0 -1 -2 -2 -1 -1 -1 -0 -0 1
10 14 12 10 11 11 10 10 10 9 8 9 8 6 4 4 5 4 4 3 3 2 2 1 1 0 1 -0 1 1 0 1 1 1 1 2 2 2 1 2 1 -1 -1 -2 -2 -1 -1 1 4
10 13 11 10 9 9 10 11 9 10 11 9 8 6 4 5 5 5 5 4 2 2 2 1 1 1 0 -0 1 1 1 1 1 1 1 2 2 2 2 3 3 3 2 1 1 1 1 2 3
11 9 10 9 9 9 10 10 11 10 10 9 7 5 4 5 4 4 5 5 4 4 3 2 2 1 1 0 0 1 1 2 2 1 1 2 3 3 3 4 3 3 3 3 3 3 2 2 2
11 11 10 9 9 9 9 10 10 9 9 6 6 4 5 4 4 4 4 4 5 4 3 3 2 1 1 1 1 1 0 0 2 2 2 2 3 3 3 3 3 3 3 3 3 4 4 4 3
10 11 11 10 10 9 10 10 9 8 8 7 5 5 5 4 4 4 4 4 4 4 3 3 2 1 1 1 1 1 -0 1 1 2 2 3 3 3 3 3 3 4 4 3 4 4 5 6 6
9 10 10 10 10 10 8 11 10 8 9 8 6 6 5 4 4 4 3 3 3 3 4 4 3 2 2 1 0 1 1 1 1 1 3 3 4 5 5 5 5 4 4 3 4 4 5 5 6
11 11 14 11 9 9 9 14 11 8 8 8 8 7 5 5 4 3 3 3 3 3 4 4 3 3 2 1 1 0 1 1 1 1 1 2 3 4 5 5 5 5 5 5 5 5 6 6 6
13 17 15 13 9 10 10 13 10 9 8 8 8 8 7 7 6 4 3 3 3 3 3 4 3 3 3 2 1 1 0 1 1 1 1 2 2 2 3 4 4 5 5 6 6 6 6 7 7
16 16 14 15 13 11 12 11 10 9 10 9 9 9 9 9 8 7 5 2 2 3 2 3 3 3 3 3 2 2 2 1 1 1 1 2 2 2 3 3 4 5 5 5 6 6 7 6 6
14 15 16 15 12 13 13 13 11 10 10 10 10 10 10 10 8 8 8 6 4 3 3 3 3 3 3 4 4 4 3 2 2 1 1 1 2 2 2 2 3 4 4 4 5 6 7 6 7
13 14 16 14 13 14 14 14 13 12 12 10 9 10 10 10 9 8 8 8 7 5 2 3 3 4 3 3 4 4 4 4 2 2 2 1 1 2 2 2 3 4 4 4 5 6 6 7 7
13 14 15 15 13 14 15 15 14 12 12 11 11 10 10 9 8 8 9 9 8 7 6 4 3 3 3 3 5 5 5 5 4 4 3 2 2 2 2 2 2 3 4 4 5 5 5 5 7
15 12 12 12 14 17 15 20 17 15 14 13 11 11 10 9 8 8 9 9 9 8 8 5 3 3 3 3 4 5 4 5 5 4 4 3 3 3 3 2 3 3 3 4 3 4 4 5 5
13 10 11 12 14 16 17 18 18 16 16 15 13 11 10 8 9 8 8 8 8 8 8 7 5 2 3 3 3 4 4 4 4 5 5 4 4 4 3 3 3 3 3 3 3 4 4 3 4
9 11 11 12 14 20 16 17 21 17 14 13 12 12 10 10 10 9 8 8 7 7 6 5 5 3 2 3 3 4 4 4 4 5 5 5 4 4 4 3 3 3 3 3 3 2 2 2 2
10 13 19 20 20 20 19 18 17 16 13 12 11 11 11 11 10 11 9 8 8 8 8 7 6 6 3 3 3 3 4 4 4 4 4 5 4 3 3 2 3 2 2 2 2 2 2 1 2
12 13 17 22 21 20 17 19 18 14 12 11 11 11 11 11 10 9 9 9 9 9 9 9 8 9 8 8 9 8 8 8 8 7 7 7 7 6 5 6 4 3 2 2 1 1 1 1 2
13 15 12 16 23 21 18 17 15 14 14 12 12 12 11 10 10 9 9 10 10 10 9 9 9 9 9 9 9 9 9 9 9 9 8 8 8 7 7 7 6 6 5 3 2 2 1 1 1
11 10 16 16 22 25 20 19 18 16 13 12 12 11 11 10 11 10 10 10 10 10 10 10 9 9 9 9 10 10 10 9 9 9 9 9 9 9 9 8 8 7 7 6 5 4 3 2 1
13 14 13 13 16 21 23 21 16 14 13 13 12 12 11 11 11 11 11 10 10 10 10 10 10 10 10 10 10 10 10 10 10 10 10 10 10 10 10 9 9 9 8 8 7 7 5 4 3
10 12 12 16 17 16 18 18 15 15 14 13 12 12 11 10 10 11 10 10 11 11 11 10 10 9 9 10 11 11 11 11 11 11 11 11 11 10 10 10 10 10 9 9 8 8 7 6 5